sat.trackr.live / text

‹ back to catalog

LEMUR-2 CALLUM-K-J

NORAD 67366 · 2026-004D

PAYLOAD ACTIVE UNKNOWN

§ Identity

Operator
Country
US
Launch date
2026-01-11
Launch site
AFWTR
Launch vehicle
Mass (kg)
RCS (m²)

External: N2YO · Heavens-Above · Gunter

§ Orbital elements

Epoch: 2026-05-25T00:03:16.674048Z

Period
96.77 min
Inclination
97.8017°
Eccentricity
0.0007962
Mean motion
14.88034975 rev/d
Perigee alt
598.5 km
Apogee alt
609.6 km
Semi-major
6,982.2 km
B*
4.5985e-4
RAAN
143.9312°
Arg perigee
201.0306°
Mean anomaly
159.0585°
Rev number
1,984

§ Raw data

LEMUR-2 CALLUM-K-J1 67366U 26004D   26145.00227632  .00004173  00000+0  45985-3 0  99982 67366  97.8017 143.9312 0007962 201.0306 159.0585 14.88034975 19845

JSON: /api/v1/satellites/67366 · /tle

For live sub-satellite position, see the globe view (requires WebGL).

§ Visibility from observer

Set your observer location to see the next 7 days of passes ≥ 10°. The values pass through the URL so the page stays shareable.

No JS? Fill the form by hand. The geolocation button needs JavaScript.